User: anonymous   Login
Location: Cheyres
(46.8153°N, 6.7877°E)
Time: 02:42:14
(UTC+00:00)
Language:

Cosmos 990 Rocket - Orbit

View from above orbital plane
View from above orbital plane
View from above satellite
View from above satellite

Ground track
Ground track

The orbit data is extracted from the following two-line orbital elements,

1 10677U 78019B   21207.59598937  .00000019  00000-0  14492-4 0  9997
2 10677  74.0378  48.9645 0014414 115.6680 244.5966 14.40191981278202
Epoch (UTC): 26 July 2021 14:18:13
Eccentricity: 0.0014414
inclination: 74.0378°
perigee height: 747 km
apogee height: 768 km
right ascension of ascending node: 48.9645°
argument of perigee: 115.6680°
revolutions per day: 14.40191981
mean anomaly at epoch: 244.5966°
orbit number at epoch: 27820

The dashed part of the orbit path shows where the satellite is in the earth's shadow,  

DLR